Other Public Products
Issued by NWS Grand Forks, ND

Home | Current Version | Previous Version | Graphics & Text | Print | Product List | Glossary On
Versions: 1 2 3 4 5 6 7 8 9 10 11 12 13 14 15 16 17 18 19 20 21 22 23 24 25 26 27 28 29 30 31 32 33 34 35 36 37 38 39 40 41 42 43 44 45 46 47 48 49 50
000
FPUS83 KFGF 231210
OPUFGF
PRAIRIE TO PINES WEATHER ROUNDUP
NATIONAL WEATHER SERVICE EASTERN NORTH DAKOTA/GRAND FORKS ND
700 AM CDT FRI JUN 23 2017

 **SATELLITE DATA USED TO AUGMENT SKY COVER AT AUTOMATED STATIONS**
 *****  WEATHER ACROSS EASTERN NORTH DAKOTA  *****

CITY           SKY/WX    TMP DP  RH WIND       PRES   REMARKS
GRAND FORKS    PTSUNNY   60  54  80 NW16G23   29.78R
6HR MIN TEMP:  58; 6HR MAX TEMP:  62;

GRAND FORKS AF CLOUDY    59  51  76 NW18      29.79R
GRAND CITY NWS NOT AVBL
BUXTON         NOT AVBL
DEVILS LAKE    CLOUDY    56  48  74 NW21G26   29.87R
6HR MIN TEMP:  56; 6HR MAX TEMP:  59; 6HR PCP: TRACE;

FARGO          PTSUNNY   62  54  74 NW17      29.79R
6HR MIN TEMP:  56; 6HR MAX TEMP:  62;

WAHPETON ARPT  PTSUNNY   59  50  72 NW18G24   29.81R
$$

 *****  WEATHER ACROSS CENTRAL AND WESTERN NORTH DAKOTA  *****

CITY           SKY/WX    TMP DP  RH WIND       PRES   REMARKS
JAMESTOWN      CLOUDY    57  48  72 NW22G31   29.89R
6HR MIN TEMP:  57; 6HR MAX TEMP:  61;

BISMARCK       CLOUDY    56  44  64 NW15G23   30.03R
6HR MIN TEMP:  55; 6HR MAX TEMP:  61;

MINOT          CLOUDY    54  42  64 NW21G31   29.97R
6HR MIN TEMP:  52; 6HR MAX TEMP:  57;

MINOT AFB      CLOUDY    53  41  65 NW22G29   29.97R
6HR MIN TEMP:  51; 6HR MAX TEMP:  57;

GARRISON         N/A     50  44  80 NW21G33   30.01R
6HR MIN TEMP:  48; 6HR MAX TEMP:  54;

WILLISTON      CLOUDY    48  40  73 W13       30.11R
6HR MIN TEMP:  47; 6HR MAX TEMP:  54;

DICKINSON      MOCLDY    47  41  80 W15       30.09R
6HR MIN TEMP:  46; 6HR MAX TEMP:  53;

HETTINGER      FAIR      48  41  76 NW15      30.13R
6HR MIN TEMP:  48; 6HR MAX TEMP:  54;

$$

 *****  OTHER OBSERVATIONS NORTHEAST NORTH DAKOTA  *****

CITY           SKY/WX    TMP DP  RH WIND       PRES   REMARKS
WALHALLA       NOT AVBL
LANGDON        CLOUDY    54  54 100 NW20G26   29.83R
CAVALIER       PTSUNNY   59  52  77 NW14      29.77R
GRAFTON        CLOUDY    57  54  88 NW18G25   29.80R
CANDO          NOT AVBL
FORT TOTTEN      N/A     56  49  77 NW9       29.95
ROLLA            N/A     52  46  82 NW25      29.88R
RUGBY          NOT AVBL
 ***** THE ABOVE OBSERVATIONS ARE NON NWS ARE NOT QUALITY
        CONTROLLED AND MAY MIS-REPORT RAIN FOR SNOW...
$$

 *****  OTHER OBSERVATIONS SOUTHEAST NORTH DAKOTA *****

CITY           SKY/WX    TMP DP  RH WIND       PRES   REMARKS
COOPERSTOWN    CLOUDY    57  54  88 NW17      29.85R
VALLEY CITY    CLOUDY    57  54  88 NW20G31   29.88R
OAKES          NOT AVBL
GWINNER        CLOUDY    59  52  77 W20G25    29.86R
SHEYENNE NWR     N/A     60  52  73 NW13      29.95S
BUFFALO        NOT AVBL
WYNDMERE       NOT AVBL
 ***** THE ABOVE OBSERVATIONS ARE NON NWS ARE NOT QUALITY
       CONTROLLED AND MAY MIS-REPORT RAIN FOR SNOW...
$$

  *****  WEATHER ACROSS NORTHERN MINNESOTA  *****

CITY           SKY/WX    TMP DP  RH WIND       PRES   REMARKS
FLAG ISLAND    CLOUDY    55  52  88 NW20      29.65R
WARROAD        PTSUNNY   54  50  87 W10       29.69R
ROSEAU           N/A     57  52  82 W9        29.69R
HALLOCK        CLOUDY    57  54  88 NW18G26   29.74R
THF RVR FALLS  CLOUDY    56  52  86 NW14      29.76R
6HR MIN TEMP:  55; 6HR MAX TEMP:  56;

HALSTAD        NOT AVBL
FOSSTON        PTSUNNY   54  50  87 NW13G18   29.75R
BAUDETTE       CLOUDY    54  51  90 W9        29.66R
6HR MIN TEMP:  52; 6HR MAX TEMP:  57;

WASKISH        FAIR      57  52  82 W14G20    29.68R
CROOKSTON      CLOUDY    57  54  88 NW13      29.77R
$$
  *****  WEATHER ACROSS CENTRAL AND WEST MINNESOTA  *****

CITY           SKY/WX    TMP DP  RH WIND       PRES   REMARKS
BEMIDJI        PTSUNNY   56  50  80 W17       29.72R
PARK RAPIDS    PTSUNNY   58  49  72 NW15      29.73R
6HR MIN TEMP:  50; 6HR MAX TEMP:  58;

WADENA         CLOUDY    57  48  72 W7G16     29.75R
DETROIT LAKES  CLOUDY    57  52  82 NW14G24   29.78R
MOORHEAD       FAIR      61  54  77 NW14      29.80R
FERGUS FALLS   CLOUDY    57  52  82 W15       29.77R
ELBOW LAKE     CLOUDY    57  50  79 NW15G21   29.80R
6HR MIN TEMP:  54; 6HR MAX TEMP:  59;

MORRIS MN      CLOUDY    59  52  77 W20       29.80R
STAPLES        PTSUNNY   57  48  72 W12       29.74R
WHEATON        CLOUDY    59  52  77 W12G18    29.84R
$$
  *****  WEATHER ELSEWHERE ACROSS MINNESOTA  *****

CITY           SKY/WX    TMP DP  RH WIND       PRES   REMARKS
DULUTH         FAIR      54  48  80 W10       29.66R
6HR MIN TEMP:  50; 6HR MAX TEMP:  57;

INTRNTL FALLS  PTSUNNY   54  49  83 W9        29.62R
6HR MIN TEMP:  52; 6HR MAX TEMP:  57;

ELY            FAIR      54  46  76 W10       29.62R
CLOQUET        FAIR      55  45  67 W8        29.68R
BRAINERD       FAIR      57  47  69 W12       29.73R
6HR MIN TEMP:  56; 6HR MAX TEMP:  59;

HIBBING        PTSUNNY   53  48  83 W6        29.65S
6HR MIN TEMP:  45; 6HR MAX TEMP:  54;

ALEXANDRIA     CLOUDY    58  49  72 W15G23    29.79R
6HR MIN TEMP:  55; 6HR MAX TEMP:  60;

SAINT CLOUD    FAIR      58  48  69 NW10      29.74R
6HR MIN TEMP:  54; 6HR MAX TEMP:  58;

MINNEAPOLIS    FAIR      62  51  67 NW7       29.75R
6HR MIN TEMP:  58; 6HR MAX TEMP:  63;

$$

  *****  WEATHER ACROSS SOUTH DAKOTA  *****

CITY           SKY/WX    TMP DP  RH WIND       PRES   REMARKS
SIOUX FALLS    FAIR      58  48  69 NW15G21   29.93R
6HR MIN TEMP:  55; 6HR MAX TEMP:  59;

BROOKINGS      FAIR      56  48  74 NW15      29.92R
WATERTOWN      FAIR      56  50  80 NW17G26   29.89R
6HR MIN TEMP:  54; 6HR MAX TEMP:  62;

HURON          FAIR      57  50  77 NW18G29   29.97R
6HR MIN TEMP:  53; 6HR MAX TEMP:  57;

SISSETON         N/A     61  53  75 NW23G35   29.84R
ABERDEEN       CLOUDY    60  50  69 NW20G26   29.93R
6HR MIN TEMP:  55; 6HR MAX TEMP:  61;

MITCHELL       FAIR      59  48  67 NW16G25   29.98R
PIERRE         MOCLDY    55  47  74 W14       30.06R
6HR MIN TEMP:  54; 6HR MAX TEMP:  61;

MOBRIDGE       CLOUDY    57  47  69 NW23G31   30.00R
RAPID CITY     FAIR      53  39  59 N20       30.18R
6HR MIN TEMP:  52; 6HR MAX TEMP:  59;

$$

  *****  SOME WEATHER IN NEARBY STATES *****

CITY           SKY/WX    TMP DP  RH WIND       PRES   REMARKS
GLASGOW MT     FAIR      40  37  89 N7        30.21R
6HR MIN TEMP:  40; 6HR MAX TEMP:  51;

GREAT FALLS MT CLOUDY    40  36  86 W3        30.30R
6HR MIN TEMP:  37; 6HR MAX TEMP:  50;

CHEYENNE WY    CLOUDY    45  36  70 N20G30    30.31R
6HR MIN TEMP:  45; 6HR MAX TEMP:  61; 6HR PCP:  0.02;

SCOTTSBLUFF NE CLOUDY    54  37  52 NW9G28    30.26F
6HR MIN TEMP:  53; 6HR MAX TEMP:  67;

OMAHA NE       PTSUNNY   63  55  75 N7        29.91R
6HR MIN TEMP:  61; 6HR MAX TEMP:  73;

DES MOINES IA  FAIR      65  61  87 NW8       29.82R
6HR MIN TEMP:  64; 6HR MAX TEMP:  72; 6HR PCP: TRACE;

DAVENPORT IA   FAIR      66  63  90 N8        29.74R
6HR MIN TEMP:  66; 6HR MAX TEMP:  76; 6HR PCP:  0.86;

CHICAGO IL     CLOUDY    68  65  90 NW6       29.69R
6HR MIN TEMP:  68; 6HR MAX TEMP:  77; 6HR PCP:  0.71;

EAU CLAIRE WI  FAIR      60  59  96 SW3       29.71R
6HR MIN TEMP:  57; 6HR MAX TEMP:  63;

LA CROSSE WI   FAIR      64  64 100 S5        29.73S
6HR MIN TEMP:  60; 6HR MAX TEMP:  69;

$$

  *****  SOME NATIONAL WEATHER *****

CITY           SKY/WX    TMP DP  RH WIND       PRES   REMARKS
LA GUARDIA NY  PTSUNNY   81  72  74 SW9       29.81F



USA.gov is the U.S. government's official web portal to all federal, state and local government web resources and services.